Regional Weather Roundup
Issued by NWS

Home | Current Version | Previous Version | Graphics & Text | Print | Product List | Glossary On
Versions: 1 2 3 4 5 6 7 8 9 10 11 12 13 14 15 16 17 18 19 20 21 22 23 24 25 26 27 28 29 30 31 32 33 34 35 36 37 38 39 40 41 42 43 44 45 46 47 48 49 50
000
ASUS45 KBOU 021007
RWRCO

WEATHER ROUNDUP FOR COLORADO
NATIONAL WEATHER SERVICE DENVER/BOULDER CO
400 AM MDT WED SEP 02 2015

NOTE: "FAIR" INDICATES FEW OR NO CLOUDS BELOW 12000 FEET WITH NO
SIGNIFICANT WEATHER AND/OR OBSTRUCTIONS TO VISIBILITY.

COZ001>005-013-030-031-021100-
...NORTHWEST COLORADO...

CITY           SKY/WX    TMP DP  RH WIND       PRES   REMARKS
CRAIG          CLEAR     44  40  85 W5        30.23R
HAYDEN         NOT AVBL
MEEKER         PTCLDY    49  46  90 NE6       30.24R
MOUNT WERNER   NOT AVBL
STEAMBOAT SPGS CLEAR     47  41  81 NW3       30.27S
WALDEN         PTCLDY    41  36  81 SE8       30.33S
$$

COZ006>008-011-021100-
...WEST CENTRAL VALLEYS...

CITY           SKY/WX    TMP DP  RH WIND       PRES   REMARKS
GRAND JUNCTION MOCLDY    64  50  60 E10       30.14R
MONTROSE       CLEAR     57  49  74 CALM      30.23S
EAGLE          CLEAR     48  46  93 E5        30.33S
RIFLE          PTCLDY    54  50  86 S3        30.23S
DELTA          CLEAR     63  51  65 NE10      30.20R
NUCLA          CLEAR     59  45  58 SE10      30.25S
$$

COZ017>023-064>068-021100-
...SOUTHWEST COLORADO...

CITY           SKY/WX    TMP DP  RH WIND       PRES   REMARKS
DURANGO        MOCLDY    52  44  74 CALM      30.26S
CORTEZ         PTCLDY    56  45  66 NE3       30.22R
PAGOSA SPRINGS MOCLDY    54  47  78 CALM      30.34S
TELLURIDE      PTCLDY    51  46  82 SE6       30.46S
WOLF CREEK PAS NOT AVBL
$$

COZ009-010-012-014-032>034-037-058>063-021100-
...CENTRAL COLORADO...

CITY           SKY/WX    TMP DP  RH WIND       PRES   REMARKS
ASPEN          CLEAR     47  43  86 SW7       30.35S
BUENA VISTA    CLEAR     51  44  77 NW9       30.36S
COPPER MTN     CLEAR     46  32  57 W18       30.60S
BERTHOUD PASS  FAIR      37  28  70 W33G45    30.59S
COTTONWOOD PAS CLEAR     52  41  66 CALM      30.47S
GUNNISON       PTCLDY    48  45  87 NE5       30.41S
KREMMLING      CLEAR     46  43  87 CALM      30.36R
LEADVILLE      CLEAR     41  41 100 NE6       30.47F
MONARCH PASS   PTCLDY    41  37  87 W21       30.69F
SALIDA         CLEAR     53  46  76 W6        30.42R
SUNLIGHT       PTCLDY    46  41  81 CALM      30.55S
WILKERSON PASS PTCLDY    45  36  70 W8        30.56S
$$

COZ069>075-021100-
...SAN LUIS VALLEY/SANGRE DE CRISTO MOUNTAINS...

CITY           SKY/WX    TMP DP  RH WIND       PRES   REMARKS
ALAMOSA        MOCLDY    47  43  86 NE3       30.33S
LA VETA PASS   PTCLDY    48  39  71 MISG      30.47F
SAGUACHE       CLOUDY    55  45  67 NW13      30.36S
$$

COZ035-036-038>040-021100-
...NORTHERN COLORADO FRONT RANGE...

CITY           SKY/WX    TMP DP  RH WIND       PRES   REMARKS
DENVER INTL AP MOCLDY    68  45  43 SW7       30.07F
DMNS CITY PARK   N/A     67  46  45 SE10      30.06S
AURORA         MOCLDY    69  45  42 SW12      30.09F
FRONT RANGE AP NOT AVBL
ERIE MUNI ARPT CLOUDY    60  49  68 CALM      30.05F
BOULDER MUN AP CLOUDY    68  43  40 N7        30.06S
CENTENNIAL     CLOUDY    68  43  40 SW12      30.11S
BROOMFIELD     CLOUDY    66  45  45 CALM      30.09S
FORT COLLINS   PTCLDY    61  45  55 CALM      30.06F
LONGMONT       PTCLDY    64  46  52 NE5       30.06F
$$

COZ041-046-047-076>085-087-088-021100-
...PIKES PEAK/PALMER DIVIDE AND SOUTHERN FOOTHILLS...

CITY           SKY/WX    TMP DP  RH WIND       PRES   REMARKS
COLO. SPRINGS  MOCLDY    62  47  57 N8        30.17F
A. F. ACADEMY  PTCLDY    64  43  45 VRB2      30.19F
ELLICOTT       PTCLDY   N/A N/A N/A CALM      30.16S
FALCON         PTCLDY    59  43  55 MISG      30.22F
FORT CARSON    PTCLDY    62  47  59 VRB6      30.13F
LIMON          MOCLDY    59  50  72 NW5       30.09F
MONUMENT HILL  MOCLDY    57  45  62 W7        30.22S
TRINIDAD       PTCLDY    57  47  69 W7        30.15F
$$

COZ042>045-048>051-090-091-021100-
...NORTHEAST COLORADO...

CITY           SKY/WX    TMP DP  RH WIND       PRES   REMARKS
GREELEY ARPT   PTCLDY    57  46  67 N3        30.05F
AKRON          MOCLDY    64  49  57 W7        30.03S
BURLINGTON     PTCLDY    61  55  81 SW10      30.03R
WRAY           CLOUDY    64  55  74 SW5       29.96S
STERLING       NOT AVBL
HOLYOKE        CLEAR     61  54  77 W8        29.96S
FORT MORGAN    NOT AVBL
$$

COZ086-089-092>099-021100-
...SOUTHEAST COLORADO...

CITY           SKY/WX    TMP DP  RH WIND       PRES   REMARKS
PUEBLO         CLEAR     66  49  54 NW13      30.06F
LA JUNTA       PTCLDY    65  52  62 W14       30.01F
LAMAR          PTCLDY    65  53  65 W5        29.97S
SPRINGFIELD      N/A     64  54  69 SW7       30.03F
$$




USA.gov is the U.S. government's official web portal to all federal, state and local government web resources and services.